Location: Mountain Meadows Observatory
(38.9513°N, 78.9327°W)
Time: 23:16:06
(UTC-04:00)

ISS - Visible Passes

Search period start: 24 May 2019 00:00
Search period end: 03 June 2019 00:00
Orbit: 408 x 418 km, 51.6° (Epoch: 25 May)

Date Brightness Start Highest point End Pass type
(mag) Time Alt. Az. Time Alt. Az. Time Alt. Az.
24 May -0.4 01:19:19 10° NNW 01:19:35 11° NNW 01:19:35 11° NNW visible
24 May -0.7 21:14:46 10° WNW 21:16:49 15° NNW 21:18:53 10° NNE visible
25 May -0.7 00:30:07 10° NNW 00:31:32 16° N 00:31:32 16° N visible
25 May -0.8 23:40:57 10° NNW 23:42:41 13° NNE 23:43:32 12° NNE visible
26 May -0.5 21:14:06 10° NNW 21:14:58 11° N 21:15:52 10° N visible
26 May -0.7 22:51:52 10° N 22:52:53 11° N 22:53:53 10° NNE visible
27 May -0.8 00:27:20 10° NW 00:28:22 17° NNW 00:28:22 17° NNW visible
27 May -1.4 23:38:04 10° NNW 23:40:25 21° NNE 23:40:25 21° NNE visible
28 May -1.2 22:48:50 10° NNW 22:50:58 16° NNE 22:52:30 12° NE visible
29 May -0.7 00:24:44 10° NW 00:25:18 14° NW 00:25:18 14° NW visible
29 May -0.9 21:59:39 10° NNW 22:01:10 12° NNE 22:02:41 10° NE visible
29 May -1.9 23:35:18 10° NW 23:37:24 31° NNW 23:37:24 31° NNW visible
30 May -0.8 21:10:36 10° N 21:11:19 10° N 21:12:01 10° NNE visible
30 May -2.2 22:45:57 10° NNW 22:48:52 27° NNE 22:49:31 25° NE visible
31 May -1.5 21:56:38 10° NNW 21:59:08 19° NNE 22:01:38 10° ENE visible
31 May -1.9 23:32:45 10° NW 23:34:28 28° WNW 23:34:28 28° WNW visible
01 Jun -1.1 21:07:23 10° NNW 21:09:20 15° NNE 21:11:17 10° NE visible
01 Jun -3.7 22:43:11 10° NW 22:46:31 65° NE 22:46:39 64° NE visible
02 Jun -2.7 21:53:44 10° NW 21:56:52 37° NNE 21:58:51 19° E visible
02 Jun -1.2 23:30:42 10° WNW 23:31:40 15° W 23:31:40 15° W visible
